Year,Month,Day,Hour,Minute,Value (Times are PST for temperature in C)
2010,06,24,00,00,15.30
2010,06,24,00,01,15.30
2010,06,24,00,02,15.30
2010,06,24,00,03,15.30
2010,06,24,00,04,15.30
2010,06,24,00,05,15.30
2010,06,24,00,06,15.30
2010,06,24,00,07,15.30
2010,06,24,00,08,15.30
2010,06,24,00,09,15.30
2010,06,24,00,10,15.30
2010,06,24,00,11,15.40
2010,06,24,00,12,15.40
2010,06,24,00,13,15.40
2010,06,24,00,14,15.40
2010,06,24,00,15,15.40
2010,06,24,00,16,15.40
2010,06,24,00,17,15.40
2010,06,24,00,18,15.30
2010,06,24,00,19,15.30
2010,06,24,00,20,15.30
2010,06,24,00,21,15.30
2010,06,24,00,22,15.30
2010,06,24,00,23,15.30
2010,06,24,00,24,15.20
2010,06,24,00,25,15.20
2010,06,24,00,26,15.20
2010,06,24,00,27,15.20
2010,06,24,00,28,15.20
2010,06,24,00,29,15.20
2010,06,24,00,30,15.20
2010,06,24,00,31,15.10
2010,06,24,00,32,15.10
2010,06,24,00,33,15.10
2010,06,24,00,34,15.00
2010,06,24,00,35,15.00
2010,06,24,00,36,15.00
2010,06,24,00,37,15.00
2010,06,24,00,38,15.00
2010,06,24,00,39,15.00
2010,06,24,00,40,15.00
2010,06,24,00,41,15.00
2010,06,24,00,42,15.00
2010,06,24,00,43,15.00
2010,06,24,00,44,15.00
2010,06,24,00,45,15.00
2010,06,24,00,46,15.00
2010,06,24,00,47,15.00
2010,06,24,00,48,15.00
2010,06,24,00,49,15.00
2010,06,24,00,50,15.00
2010,06,24,00,51,15.00
2010,06,24,00,52,15.00
2010,06,24,00,53,15.00
2010,06,24,00,54,15.00
2010,06,24,00,55,15.00
2010,06,24,00,56,15.00
2010,06,24,00,57,15.00
2010,06,24,00,58,15.00
2010,06,24,00,59,15.00
2010,06,24,01,00,15.00
2010,06,24,01,01,15.00
2010,06,24,01,02,15.00
2010,06,24,01,03,15.00
2010,06,24,01,04,15.00
2010,06,24,01,05,15.00
2010,06,24,01,06,15.00
2010,06,24,01,07,15.00
2010,06,24,01,08,15.00
2010,06,24,01,09,15.00
2010,06,24,01,10,15.00
2010,06,24,01,11,15.00
2010,06,24,01,12,15.00
2010,06,24,01,13,15.00
2010,06,24,01,14,15.00
2010,06,24,01,15,15.00
2010,06,24,01,16,15.00
2010,06,24,01,17,15.00
2010,06,24,01,18,15.00
2010,06,24,01,19,15.00
2010,06,24,01,20,15.00
2010,06,24,01,21,15.00
2010,06,24,01,22,15.00
2010,06,24,01,23,15.00
2010,06,24,01,24,15.00
2010,06,24,01,25,15.00
2010,06,24,01,26,15.00
2010,06,24,01,27,15.00
2010,06,24,01,28,15.00
2010,06,24,01,29,15.00
2010,06,24,01,30,15.00
2010,06,24,01,31,15.00
2010,06,24,01,32,15.00
2010,06,24,01,33,15.00
2010,06,24,01,34,15.00
2010,06,24,01,35,15.00
2010,06,24,01,36,15.00
2010,06,24,01,37,15.00
2010,06,24,01,38,15.00
2010,06,24,01,39,15.00
2010,06,24,01,40,15.00
2010,06,24,01,41,15.00
2010,06,24,01,42,15.00
2010,06,24,01,43,14.90
2010,06,24,01,44,14.90
2010,06,24,01,45,15.00
2010,06,24,01,46,15.00
2010,06,24,01,47,15.00
2010,06,24,01,48,15.00
2010,06,24,01,49,15.00
2010,06,24,01,50,15.00
2010,06,24,01,51,15.00
2010,06,24,01,52,14.90
2010,06,24,01,53,14.90
2010,06,24,01,54,14.80
2010,06,24,01,55,14.90
2010,06,24,01,56,14.90
2010,06,24,01,57,14.90
2010,06,24,01,58,14.90
2010,06,24,01,59,15.00
2010,06,24,02,00,15.00
2010,06,24,02,01,15.00
2010,06,24,02,02,15.00
2010,06,24,02,03,15.00
2010,06,24,02,04,15.00
2010,06,24,02,05,15.00
2010,06,24,02,06,14.90
2010,06,24,02,07,14.90
2010,06,24,02,08,14.80
2010,06,24,02,09,14.80
2010,06,24,02,10,14.80
2010,06,24,02,11,14.80
2010,06,24,02,12,14.80
2010,06,24,02,13,14.80
2010,06,24,02,14,14.90
2010,06,24,02,15,14.80
2010,06,24,02,16,14.80
2010,06,24,02,17,14.80
2010,06,24,02,18,14.90
2010,06,24,02,19,14.80
2010,06,24,02,20,14.80
2010,06,24,02,21,14.80
2010,06,24,02,22,14.90
2010,06,24,02,23,14.90
2010,06,24,02,24,14.80
2010,06,24,02,25,14.90
2010,06,24,02,26,14.90
2010,06,24,02,27,14.90
2010,06,24,02,28,14.90
2010,06,24,02,29,15.00
2010,06,24,02,30,15.00
2010,06,24,02,31,15.00
2010,06,24,02,32,15.00
2010,06,24,02,33,15.00
2010,06,24,02,34,15.00
2010,06,24,02,35,15.00
2010,06,24,02,36,15.00
2010,06,24,02,37,15.00
2010,06,24,02,38,15.00
2010,06,24,02,39,15.00
2010,06,24,02,40,15.00
2010,06,24,02,41,15.00
2010,06,24,02,42,14.90
2010,06,24,02,43,14.80
2010,06,24,02,44,14.80
2010,06,24,02,45,14.80
2010,06,24,02,46,14.80
2010,06,24,02,47,14.80
2010,06,24,02,48,14.80
2010,06,24,02,49,14.80
2010,06,24,02,50,14.80
2010,06,24,02,51,14.80
2010,06,24,02,52,14.80
2010,06,24,02,53,14.80
2010,06,24,02,54,14.80
2010,06,24,02,55,14.80
2010,06,24,02,56,14.80
2010,06,24,02,57,14.80
2010,06,24,02,58,14.70
2010,06,24,02,59,14.70
2010,06,24,03,00,14.70
2010,06,24,03,01,14.70
2010,06,24,03,02,14.70
2010,06,24,03,03,14.70
2010,06,24,03,04,14.60
2010,06,24,03,05,14.60
2010,06,24,03,06,14.60
2010,06,24,03,07,14.60
2010,06,24,03,08,14.60
2010,06,24,03,09,14.50
2010,06,24,03,10,14.50
2010,06,24,03,11,14.50
2010,06,24,03,12,14.50
2010,06,24,03,13,14.40
2010,06,24,03,14,14.40
2010,06,24,03,15,14.40
2010,06,24,03,16,14.40
2010,06,24,03,17,14.40
2010,06,24,03,18,14.40
2010,06,24,03,19,14.40
2010,06,24,03,20,14.40
2010,06,24,03,21,14.40
2010,06,24,03,22,14.40
2010,06,24,03,23,14.30
2010,06,24,03,24,14.30
2010,06,24,03,25,14.30
2010,06,24,03,26,14.30
2010,06,24,03,27,14.30
2010,06,24,03,28,14.30
2010,06,24,03,29,14.30
2010,06,24,03,30,14.30
2010,06,24,03,31,14.30
2010,06,24,03,32,14.30
2010,06,24,03,33,14.30
2010,06,24,03,34,14.30
2010,06,24,03,35,14.30
2010,06,24,03,36,14.30
2010,06,24,03,37,14.20
2010,06,24,03,38,14.20
2010,06,24,03,39,14.20
2010,06,24,03,40,14.30
2010,06,24,03,41,14.30
2010,06,24,03,42,14.30
2010,06,24,03,43,14.30
2010,06,24,03,44,14.30
2010,06,24,03,45,14.30
2010,06,24,03,46,14.30
2010,06,24,03,47,14.30
2010,06,24,03,48,14.30
2010,06,24,03,49,14.30
2010,06,24,03,50,14.30
2010,06,24,03,51,14.20
2010,06,24,03,52,14.20
2010,06,24,03,53,14.20
2010,06,24,03,54,14.20
2010,06,24,03,55,14.10
2010,06,24,03,56,14.10
2010,06,24,03,57,14.10
2010,06,24,03,58,14.10
2010,06,24,03,59,14.10
2010,06,24,04,00,14.10
2010,06,24,04,01,14.10
2010,06,24,04,02,14.10
2010,06,24,04,03,14.10
2010,06,24,04,04,14.10
2010,06,24,04,05,14.10
2010,06,24,04,06,14.10
2010,06,24,04,07,14.00
2010,06,24,04,08,14.00
2010,06,24,04,09,14.00
2010,06,24,04,10,14.00
2010,06,24,04,11,14.00
2010,06,24,04,12,14.00
2010,06,24,04,13,14.00
2010,06,24,04,14,14.00
2010,06,24,04,15,14.00
2010,06,24,04,16,14.00
2010,06,24,04,17,14.00
2010,06,24,04,18,14.00
2010,06,24,04,19,14.00
2010,06,24,04,20,14.10
2010,06,24,04,21,14.00
2010,06,24,04,22,14.00
2010,06,24,04,23,14.10
2010,06,24,04,24,14.00
2010,06,24,04,25,14.00
2010,06,24,04,26,14.00
2010,06,24,04,27,14.00
2010,06,24,04,28,14.00
2010,06,24,04,29,13.90
2010,06,24,04,30,13.90
2010,06,24,04,31,13.90
2010,06,24,04,32,13.90
2010,06,24,04,33,13.90
2010,06,24,04,34,13.90
2010,06,24,04,35,13.90
2010,06,24,04,36,13.90
2010,06,24,04,37,13.90
2010,06,24,04,38,13.90
2010,06,24,04,39,13.90
2010,06,24,04,40,13.90
2010,06,24,04,41,13.80
2010,06,24,04,42,13.80
2010,06,24,04,43,13.80
2010,06,24,04,44,13.80
2010,06,24,04,45,13.80
2010,06,24,04,46,13.80
2010,06,24,04,47,13.80
2010,06,24,04,48,13.80
2010,06,24,04,49,13.80
2010,06,24,04,50,13.80
2010,06,24,04,51,13.80
2010,06,24,04,52,13.70
2010,06,24,04,53,13.70
2010,06,24,04,54,13.70
2010,06,24,04,55,13.70
2010,06,24,04,56,13.70
2010,06,24,04,57,13.70
2010,06,24,04,58,13.70
2010,06,24,04,59,13.70
2010,06,24,05,00,13.70
2010,06,24,05,01,13.70
2010,06,24,05,02,13.70
2010,06,24,05,03,13.70
2010,06,24,05,04,13.70
2010,06,24,05,05,13.70
2010,06,24,05,06,13.70
2010,06,24,05,07,13.70
2010,06,24,05,08,13.70
2010,06,24,05,09,13.70
2010,06,24,05,10,13.70
2010,06,24,05,11,13.70
2010,06,24,05,12,13.70
2010,06,24,05,13,13.70
2010,06,24,05,14,13.70
2010,06,24,05,15,13.70
2010,06,24,05,16,13.70
2010,06,24,05,17,13.70
2010,06,24,05,18,13.70
2010,06,24,05,19,13.70
2010,06,24,05,20,13.70
2010,06,24,05,21,13.70
2010,06,24,05,22,13.70
2010,06,24,05,23,13.80
2010,06,24,05,24,13.80
2010,06,24,05,25,13.80
2010,06,24,05,26,13.70
2010,06,24,05,27,13.80
2010,06,24,05,28,13.80
2010,06,24,05,29,13.80
2010,06,24,05,30,13.80
2010,06,24,05,31,13.80
2010,06,24,05,32,13.80
2010,06,24,05,33,13.90
2010,06,24,05,34,13.90
2010,06,24,05,35,13.90
2010,06,24,05,36,13.90
2010,06,24,05,37,13.90
2010,06,24,05,38,13.90
2010,06,24,05,39,13.90
2010,06,24,05,40,13.90
2010,06,24,05,41,13.90
2010,06,24,05,42,13.90
2010,06,24,05,43,13.90
2010,06,24,05,44,13.90
2010,06,24,05,45,13.90
2010,06,24,05,46,13.90
2010,06,24,05,47,13.90
2010,06,24,05,48,13.90
2010,06,24,05,49,13.80
2010,06,24,05,50,13.80
2010,06,24,05,51,13.80
2010,06,24,05,52,13.80
2010,06,24,05,53,13.80
2010,06,24,05,54,13.80
2010,06,24,05,55,13.80
2010,06,24,05,56,13.80
2010,06,24,05,57,13.80
2010,06,24,05,58,13.80
2010,06,24,05,59,13.80
2010,06,24,06,00,13.80
2010,06,24,06,01,13.80
2010,06,24,06,02,13.80
2010,06,24,06,03,13.80
2010,06,24,06,04,13.80
2010,06,24,06,05,13.80
2010,06,24,06,06,13.80
2010,06,24,06,07,13.80
2010,06,24,06,08,13.80
2010,06,24,06,09,13.80
2010,06,24,06,10,13.80
2010,06,24,06,11,13.80
2010,06,24,06,12,13.90
2010,06,24,06,13,13.90
2010,06,24,06,14,13.90
2010,06,24,06,15,13.90
2010,06,24,06,16,13.90
2010,06,24,06,17,13.90
2010,06,24,06,18,13.80
2010,06,24,06,19,13.80
2010,06,24,06,20,13.80
2010,06,24,06,21,13.80
2010,06,24,06,22,13.80
2010,06,24,06,23,13.80
2010,06,24,06,24,13.80
2010,06,24,06,25,13.80
2010,06,24,06,26,13.80
2010,06,24,06,27,13.80
2010,06,24,06,28,13.80
2010,06,24,06,29,13.90
2010,06,24,06,30,13.90
2010,06,24,06,31,13.90
2010,06,24,06,32,13.90
2010,06,24,06,33,13.90
2010,06,24,06,34,13.90
2010,06,24,06,35,13.90
2010,06,24,06,36,13.90
2010,06,24,06,37,13.90
2010,06,24,06,38,13.90
2010,06,24,06,39,13.90
2010,06,24,06,40,14.00
2010,06,24,06,41,14.00
2010,06,24,06,42,14.00
2010,06,24,06,43,14.00
2010,06,24,06,44,14.10
2010,06,24,06,45,14.10
2010,06,24,06,46,14.10
2010,06,24,06,47,14.10
2010,06,24,06,48,14.20
2010,06,24,06,49,14.20
2010,06,24,06,50,14.30
2010,06,24,06,51,14.30
2010,06,24,06,52,14.30
2010,06,24,06,53,14.40
2010,06,24,06,54,14.40
2010,06,24,06,55,14.40
2010,06,24,06,56,14.40
2010,06,24,06,57,14.40
2010,06,24,06,58,14.50
2010,06,24,06,59,14.60
2010,06,24,07,00,14.60
2010,06,24,07,01,14.60
2010,06,24,07,02,14.60
2010,06,24,07,03,14.60
2010,06,24,07,04,14.60
2010,06,24,07,05,14.70
2010,06,24,07,06,14.70
2010,06,24,07,07,14.70
2010,06,24,07,08,14.80
2010,06,24,07,09,14.80
2010,06,24,07,10,14.90
2010,06,24,07,11,15.00
2010,06,24,07,12,15.00
2010,06,24,07,13,15.00
2010,06,24,07,14,15.00
2010,06,24,07,15,15.00
2010,06,24,07,16,15.00
2010,06,24,07,17,15.10
2010,06,24,07,18,15.20
2010,06,24,07,19,15.20
2010,06,24,07,20,15.20
2010,06,24,07,21,15.20
2010,06,24,07,22,15.30
2010,06,24,07,23,15.30
2010,06,24,07,24,15.30
2010,06,24,07,25,15.30
2010,06,24,07,26,15.40
2010,06,24,07,27,15.40
2010,06,24,07,28,15.40
2010,06,24,07,29,15.40
2010,06,24,07,30,15.50
2010,06,24,07,31,15.50
2010,06,24,07,32,15.50
2010,06,24,07,33,15.50
2010,06,24,07,34,15.60
2010,06,24,07,35,15.60
2010,06,24,07,36,15.60
2010,06,24,07,37,15.60
2010,06,24,07,38,15.70
2010,06,24,07,39,15.70
2010,06,24,07,40,15.70
2010,06,24,07,41,15.70
2010,06,24,07,42,15.70
2010,06,24,07,43,15.70
2010,06,24,07,44,15.80
2010,06,24,07,45,15.80
2010,06,24,07,46,15.80
2010,06,24,07,47,15.80
2010,06,24,07,48,15.90
2010,06,24,07,49,15.90
2010,06,24,07,50,15.90
2010,06,24,07,51,15.90
2010,06,24,07,52,16.00
2010,06,24,07,53,16.00
2010,06,24,07,54,16.00
2010,06,24,07,55,16.10
2010,06,24,07,56,16.10
2010,06,24,07,57,16.10
2010,06,24,07,58,16.10
2010,06,24,07,59,16.20
2010,06,24,08,00,16.20
2010,06,24,08,01,16.20
2010,06,24,08,02,16.20
2010,06,24,08,03,16.30
2010,06,24,08,04,16.30
2010,06,24,08,05,16.40
2010,06,24,08,06,16.50
2010,06,24,08,07,16.50
2010,06,24,08,08,16.60
2010,06,24,08,09,16.60
2010,06,24,08,10,16.60
2010,06,24,08,11,16.70
2010,06,24,08,12,16.70
2010,06,24,08,13,16.70
2010,06,24,08,14,16.80
2010,06,24,08,15,16.80
2010,06,24,08,16,16.80
2010,06,24,08,17,16.90
2010,06,24,08,18,16.90
2010,06,24,08,19,17.00
2010,06,24,08,20,17.10
2010,06,24,08,21,17.10
2010,06,24,08,22,17.10
2010,06,24,08,23,17.20
2010,06,24,08,24,17.20
2010,06,24,08,25,17.20
2010,06,24,08,26,17.20
2010,06,24,08,27,17.20
2010,06,24,08,28,17.20
2010,06,24,08,29,17.20
2010,06,24,08,30,17.20
2010,06,24,08,31,17.20
2010,06,24,08,32,17.20
2010,06,24,08,33,17.20
2010,06,24,08,34,17.20
2010,06,24,08,35,17.20
2010,06,24,08,36,17.20
2010,06,24,08,37,17.20
2010,06,24,08,38,17.20
2010,06,24,08,39,17.30
2010,06,24,08,40,17.30
2010,06,24,08,41,17.30
2010,06,24,08,42,17.30
2010,06,24,08,43,17.30
2010,06,24,08,44,17.30
2010,06,24,08,45,17.30
2010,06,24,08,46,17.30
2010,06,24,08,47,17.30
2010,06,24,08,48,17.40
2010,06,24,08,49,17.40
2010,06,24,08,50,17.40
2010,06,24,08,51,17.40
2010,06,24,08,52,17.50
2010,06,24,08,53,17.50
2010,06,24,08,54,17.60
2010,06,24,08,55,17.60
2010,06,24,08,56,17.60
2010,06,24,08,57,17.70
2010,06,24,08,58,17.70
2010,06,24,08,59,17.70
2010,06,24,09,00,17.80
2010,06,24,09,01,17.80
2010,06,24,09,02,17.80
2010,06,24,09,03,17.80
2010,06,24,09,04,17.70
2010,06,24,09,05,17.70
2010,06,24,09,06,17.70
2010,06,24,09,07,17.70
2010,06,24,09,08,17.60
2010,06,24,09,09,17.60
2010,06,24,09,10,17.50
2010,06,24,09,11,17.50
2010,06,24,09,12,17.40
2010,06,24,09,13,17.30
2010,06,24,09,14,17.20
2010,06,24,09,15,17.10
2010,06,24,09,16,17.10
2010,06,24,09,17,17.00
2010,06,24,09,18,17.00
2010,06,24,09,19,17.00
2010,06,24,09,20,17.00
2010,06,24,09,21,17.00
2010,06,24,09,22,17.10
2010,06,24,09,23,17.10
2010,06,24,09,24,17.10
2010,06,24,09,25,17.10
2010,06,24,09,26,17.20
2010,06,24,09,27,17.20
2010,06,24,09,28,17.20
2010,06,24,09,29,17.20
2010,06,24,09,30,17.20
2010,06,24,09,31,17.20
2010,06,24,09,32,17.20
2010,06,24,09,33,17.20
2010,06,24,09,34,17.20
2010,06,24,09,35,17.10
2010,06,24,09,36,17.10
2010,06,24,09,37,17.00
2010,06,24,09,38,17.00
2010,06,24,09,39,16.90
2010,06,24,09,40,16.90
2010,06,24,09,41,16.90
2010,06,24,09,42,16.90
2010,06,24,09,43,16.90
2010,06,24,09,44,16.90
2010,06,24,09,45,16.90
2010,06,24,09,46,16.90
2010,06,24,09,47,16.90
2010,06,24,09,48,16.90
2010,06,24,09,49,16.90
2010,06,24,09,50,16.90
2010,06,24,09,51,16.90
2010,06,24,09,52,16.90
2010,06,24,09,53,16.90
2010,06,24,09,54,16.90
2010,06,24,09,55,16.90
2010,06,24,09,56,16.90
2010,06,24,09,57,16.90
2010,06,24,09,58,16.90
2010,06,24,09,59,16.90
2010,06,24,10,00,16.90
2010,06,24,10,01,16.80
2010,06,24,10,02,16.80
2010,06,24,10,03,16.80
2010,06,24,10,04,16.80
2010,06,24,10,05,16.70
2010,06,24,10,06,16.70
2010,06,24,10,07,16.70
2010,06,24,10,08,16.70
2010,06,24,10,09,16.70
2010,06,24,10,10,16.70
2010,06,24,10,11,16.70
2010,06,24,10,12,16.70
2010,06,24,10,13,16.80
2010,06,24,10,14,16.80
2010,06,24,10,15,16.80
2010,06,24,10,16,16.80
2010,06,24,10,17,16.80
2010,06,24,10,18,16.80
2010,06,24,10,19,16.80
2010,06,24,10,20,16.80
2010,06,24,10,21,16.80
2010,06,24,10,22,16.80
2010,06,24,10,23,16.80
2010,06,24,10,24,16.80
2010,06,24,10,25,16.80
2010,06,24,10,26,16.80
2010,06,24,10,27,16.80
2010,06,24,10,28,16.80
2010,06,24,10,29,16.80
2010,06,24,10,30,16.80
2010,06,24,10,31,16.80
2010,06,24,10,32,16.90
2010,06,24,10,33,16.90
2010,06,24,10,34,16.90
2010,06,24,10,35,17.00
2010,06,24,10,36,17.10
2010,06,24,10,37,17.20
2010,06,24,10,38,17.30
2010,06,24,10,39,17.50
2010,06,24,10,40,17.60
2010,06,24,10,41,17.70
2010,06,24,10,42,17.80
2010,06,24,10,43,17.90
2010,06,24,10,44,17.90
2010,06,24,10,45,18.00
2010,06,24,10,46,18.20
2010,06,24,10,47,18.30
2010,06,24,10,48,18.30
2010,06,24,10,49,18.20
2010,06,24,10,50,18.30
2010,06,24,10,51,18.40
2010,06,24,10,52,18.60
2010,06,24,10,53,18.70
2010,06,24,10,54,18.90
2010,06,24,10,55,18.80
2010,06,24,10,56,18.70
2010,06,24,10,57,18.70
2010,06,24,10,58,18.70
2010,06,24,10,59,18.70
2010,06,24,11,00,18.80
2010,06,24,11,01,18.80
2010,06,24,11,02,18.80
2010,06,24,11,03,18.80
2010,06,24,11,04,18.80
2010,06,24,11,05,18.90
2010,06,24,11,06,18.90
2010,06,24,11,07,18.90
2010,06,24,11,08,18.80
2010,06,24,11,09,18.70
2010,06,24,11,10,18.60
2010,06,24,11,11,18.50
2010,06,24,11,12,18.40
2010,06,24,11,13,18.40
2010,06,24,11,14,18.30
2010,06,24,11,15,18.30
2010,06,24,11,16,18.20
2010,06,24,11,17,18.10
2010,06,24,11,18,18.10
2010,06,24,11,19,18.10
2010,06,24,11,20,18.10
2010,06,24,11,21,18.20
2010,06,24,11,22,18.20
2010,06,24,11,23,18.20
2010,06,24,11,24,18.20
2010,06,24,11,25,18.30
2010,06,24,11,26,18.40
2010,06,24,11,27,18.60
2010,06,24,11,28,18.70
2010,06,24,11,29,18.90
2010,06,24,11,30,19.10
2010,06,24,11,31,19.30
2010,06,24,11,32,19.40
2010,06,24,11,33,19.60
2010,06,24,11,34,19.70
2010,06,24,11,35,19.80
2010,06,24,11,36,20.00
2010,06,24,11,37,20.00
2010,06,24,11,38,20.10
2010,06,24,11,39,20.10
2010,06,24,11,40,20.10
2010,06,24,11,41,20.00
2010,06,24,11,42,20.00
2010,06,24,11,43,19.90
2010,06,24,11,44,19.80
2010,06,24,11,45,19.70
2010,06,24,11,46,19.60
2010,06,24,11,47,19.50
2010,06,24,11,48,19.40
2010,06,24,11,49,19.30
2010,06,24,11,50,19.20
2010,06,24,11,51,19.10
2010,06,24,11,52,19.10
2010,06,24,11,53,19.00
2010,06,24,11,54,18.90
2010,06,24,11,55,18.80
2010,06,24,11,56,18.70
2010,06,24,11,57,18.70
2010,06,24,11,58,18.60
2010,06,24,11,59,18.60
2010,06,24,12,00,18.60
2010,06,24,12,01,18.50
2010,06,24,12,02,18.40
2010,06,24,12,03,18.30
2010,06,24,12,04,18.30
2010,06,24,12,05,18.30
2010,06,24,12,06,18.30
2010,06,24,12,07,18.40
2010,06,24,12,08,18.50
2010,06,24,12,09,18.50
2010,06,24,12,10,18.40
2010,06,24,12,11,18.30
2010,06,24,12,12,18.30
2010,06,24,12,13,18.20
2010,06,24,12,14,18.20
2010,06,24,12,15,18.20
2010,06,24,12,16,18.20
2010,06,24,12,17,18.10
2010,06,24,12,18,18.00
2010,06,24,12,19,18.00
2010,06,24,12,20,17.90
2010,06,24,12,21,17.80
2010,06,24,12,22,17.70
2010,06,24,12,23,17.70
2010,06,24,12,24,17.70
2010,06,24,12,25,17.70
2010,06,24,12,26,17.70
2010,06,24,12,27,17.60
2010,06,24,12,28,17.60
2010,06,24,12,29,17.60
2010,06,24,12,30,17.70
2010,06,24,12,31,17.80
2010,06,24,12,32,18.00
2010,06,24,12,33,18.20
2010,06,24,12,34,18.40
2010,06,24,12,35,18.60
2010,06,24,12,36,18.70
2010,06,24,12,37,18.70
2010,06,24,12,38,18.60
2010,06,24,12,39,18.60
2010,06,24,12,40,18.60
2010,06,24,12,41,18.60
2010,06,24,12,42,18.70
2010,06,24,12,43,18.70
2010,06,24,12,44,18.60
2010,06,24,12,45,18.50
2010,06,24,12,46,18.50
2010,06,24,12,47,18.40
2010,06,24,12,48,18.30
2010,06,24,12,49,18.30
2010,06,24,12,50,18.20
2010,06,24,12,51,18.20
2010,06,24,12,52,18.20
2010,06,24,12,53,18.30
2010,06,24,12,54,18.40
2010,06,24,12,55,18.50
2010,06,24,12,56,18.60
2010,06,24,12,57,18.60
2010,06,24,12,58,18.70
2010,06,24,12,59,18.70
2010,06,24,13,00,18.80
2010,06,24,13,01,18.90
2010,06,24,13,02,18.90
2010,06,24,13,03,19.00
2010,06,24,13,04,19.10
2010,06,24,13,05,19.10
2010,06,24,13,06,19.20
2010,06,24,13,07,19.10
2010,06,24,13,08,19.20
2010,06,24,13,09,19.20
2010,06,24,13,10,19.20
2010,06,24,13,11,19.20
2010,06,24,13,12,19.10
2010,06,24,13,13,19.10
2010,06,24,13,14,19.10
2010,06,24,13,15,19.00
2010,06,24,13,16,19.00
2010,06,24,13,17,18.90
2010,06,24,13,18,18.80
2010,06,24,13,19,18.80
2010,06,24,13,20,18.70
2010,06,24,13,21,18.70
2010,06,24,13,22,18.80
2010,06,24,13,23,18.80
2010,06,24,13,24,18.90
2010,06,24,13,25,19.00
2010,06,24,13,26,19.20
2010,06,24,13,27,19.30
2010,06,24,13,28,19.50
2010,06,24,13,29,19.60
2010,06,24,13,30,19.70
2010,06,24,13,31,19.70
2010,06,24,13,32,19.70
2010,06,24,13,33,19.70
2010,06,24,13,34,19.60
2010,06,24,13,35,19.60
2010,06,24,13,36,19.70
2010,06,24,13,37,19.80
2010,06,24,13,38,19.80
2010,06,24,13,39,19.80
2010,06,24,13,40,19.90
2010,06,24,13,41,19.90
2010,06,24,13,42,19.90
2010,06,24,13,43,20.00
2010,06,24,13,44,20.20
2010,06,24,13,45,20.20
2010,06,24,13,46,20.30
2010,06,24,13,47,20.30
2010,06,24,13,48,20.20
2010,06,24,13,49,20.10
2010,06,24,13,50,20.10
2010,06,24,13,51,20.00
2010,06,24,13,52,19.90
2010,06,24,13,53,19.90
2010,06,24,13,54,19.90
2010,06,24,13,55,19.80
2010,06,24,13,56,19.80
2010,06,24,13,57,19.70
2010,06,24,13,58,19.70
2010,06,24,13,59,19.70
2010,06,24,14,00,19.60
2010,06,24,14,01,19.60
2010,06,24,14,02,19.70
2010,06,24,14,03,19.80
2010,06,24,14,04,19.90
2010,06,24,14,05,20.00
2010,06,24,14,06,20.20
2010,06,24,14,07,20.30
2010,06,24,14,08,20.30
2010,06,24,14,09,20.30
2010,06,24,14,10,20.20
2010,06,24,14,11,20.20
2010,06,24,14,12,20.30
2010,06,24,14,13,20.30
2010,06,24,14,14,20.30
2010,06,24,14,15,20.30
2010,06,24,14,16,20.30
2010,06,24,14,17,20.20
2010,06,24,14,18,20.20
2010,06,24,14,19,20.20
2010,06,24,14,20,20.20
2010,06,24,14,21,20.20
2010,06,24,14,22,20.30
2010,06,24,14,23,20.50
2010,06,24,14,24,20.60
2010,06,24,14,25,20.70
2010,06,24,14,26,20.60
2010,06,24,14,27,20.60
2010,06,24,14,28,20.70
2010,06,24,14,29,20.70
2010,06,24,14,30,20.70
2010,06,24,14,31,20.70
2010,06,24,14,32,20.60
2010,06,24,14,33,20.60
2010,06,24,14,34,20.50
2010,06,24,14,35,20.50
2010,06,24,14,36,20.60
2010,06,24,14,37,20.60
2010,06,24,14,38,20.60
2010,06,24,14,39,20.60
2010,06,24,14,40,20.60
2010,06,24,14,41,20.60
2010,06,24,14,42,20.50
2010,06,24,14,43,20.50
2010,06,24,14,44,20.50
2010,06,24,14,45,20.40
2010,06,24,14,46,20.40
2010,06,24,14,47,20.30
2010,06,24,14,48,20.30
2010,06,24,14,49,20.30
2010,06,24,14,50,20.40
2010,06,24,14,51,20.40
2010,06,24,14,52,20.50
2010,06,24,14,53,20.50
2010,06,24,14,54,20.50
2010,06,24,14,55,20.40
2010,06,24,14,56,20.40
2010,06,24,14,57,20.40
2010,06,24,14,58,20.40
2010,06,24,14,59,20.40
2010,06,24,15,00,20.40
2010,06,24,15,01,20.40
2010,06,24,15,02,20.40
2010,06,24,15,03,20.40
2010,06,24,15,04,20.40
2010,06,24,15,05,20.40
2010,06,24,15,06,20.40
2010,06,24,15,07,20.40
2010,06,24,15,08,20.40
2010,06,24,15,09,20.40
2010,06,24,15,10,20.40
2010,06,24,15,11,20.40
2010,06,24,15,12,20.30
2010,06,24,15,13,20.20
2010,06,24,15,14,20.20
2010,06,24,15,15,20.10
2010,06,24,15,16,20.10
2010,06,24,15,17,20.10
2010,06,24,15,18,20.10
2010,06,24,15,19,20.10
2010,06,24,15,20,20.20
2010,06,24,15,21,20.20
2010,06,24,15,22,20.20
2010,06,24,15,23,20.10
2010,06,24,15,24,20.10
2010,06,24,15,25,20.10
2010,06,24,15,26,20.00
2010,06,24,15,27,20.00
2010,06,24,15,28,20.00
2010,06,24,15,29,20.00
2010,06,24,15,30,20.00
2010,06,24,15,31,20.00
2010,06,24,15,32,20.00
2010,06,24,15,33,19.90
2010,06,24,15,34,19.90
2010,06,24,15,35,19.90
2010,06,24,15,36,19.80
2010,06,24,15,37,19.80
2010,06,24,15,38,19.80
2010,06,24,15,39,19.90
2010,06,24,15,40,19.90
2010,06,24,15,41,19.90
2010,06,24,15,42,19.90
2010,06,24,15,43,19.90
2010,06,24,15,44,19.90
2010,06,24,15,45,19.90
2010,06,24,15,46,20.00
2010,06,24,15,47,20.00
2010,06,24,15,48,20.00
2010,06,24,15,49,20.00
2010,06,24,15,50,19.90
2010,06,24,15,51,19.90
2010,06,24,15,52,19.90
2010,06,24,15,53,19.90
2010,06,24,15,54,19.90
2010,06,24,15,55,19.90
2010,06,24,15,56,20.00
2010,06,24,15,57,20.00
2010,06,24,15,58,20.10
2010,06,24,15,59,20.20
2010,06,24,16,00,20.20
2010,06,24,16,01,20.30
2010,06,24,16,02,20.40
2010,06,24,16,03,20.50
2010,06,24,16,04,20.50
2010,06,24,16,05,20.50
2010,06,24,16,06,20.50
2010,06,24,16,07,20.50
2010,06,24,16,08,20.50
2010,06,24,16,09,20.60
2010,06,24,16,10,20.60
2010,06,24,16,11,20.70
2010,06,24,16,12,20.70
2010,06,24,16,13,20.80
2010,06,24,16,14,20.80
2010,06,24,16,15,20.90
2010,06,24,16,16,20.80
2010,06,24,16,17,20.80
2010,06,24,16,18,20.80
2010,06,24,16,19,20.80
2010,06,24,16,20,20.90
2010,06,24,16,21,21.00
2010,06,24,16,22,21.00
2010,06,24,16,23,21.00
2010,06,24,16,24,21.00
2010,06,24,16,25,21.00
2010,06,24,16,26,20.90
2010,06,24,16,27,20.80
2010,06,24,16,28,20.70
2010,06,24,16,29,20.60
2010,06,24,16,30,20.60
2010,06,24,16,31,20.60
2010,06,24,16,32,20.50
2010,06,24,16,33,20.40
2010,06,24,16,34,20.40
2010,06,24,16,35,20.30
2010,06,24,16,36,20.30
2010,06,24,16,37,20.30
2010,06,24,16,38,20.30
2010,06,24,16,39,20.30
2010,06,24,16,40,20.30
2010,06,24,16,41,20.30
2010,06,24,16,42,20.30
2010,06,24,16,43,20.20
2010,06,24,16,44,20.20
2010,06,24,16,45,20.20
2010,06,24,16,46,20.30
2010,06,24,16,47,20.30
2010,06,24,16,48,20.30
2010,06,24,16,49,20.30
2010,06,24,16,50,20.20
2010,06,24,16,51,20.20
2010,06,24,16,52,20.20
2010,06,24,16,53,20.20
2010,06,24,16,54,20.20
2010,06,24,16,55,20.20
2010,06,24,16,56,20.20
2010,06,24,16,57,20.20
2010,06,24,16,58,20.20
2010,06,24,16,59,20.10
2010,06,24,17,00,20.10
2010,06,24,17,01,20.10
2010,06,24,17,02,20.10
2010,06,24,17,03,20.10
2010,06,24,17,04,20.10
2010,06,24,17,05,20.00
2010,06,24,17,06,20.00
2010,06,24,17,07,20.00
2010,06,24,17,08,20.00
2010,06,24,17,09,20.00
2010,06,24,17,10,20.00
2010,06,24,17,11,20.00
2010,06,24,17,12,19.90
2010,06,24,17,13,19.90
2010,06,24,17,14,20.00
2010,06,24,17,15,20.00
2010,06,24,17,16,20.00
2010,06,24,17,17,20.00
2010,06,24,17,18,20.00
2010,06,24,17,19,20.10